Simultaneous Nadir Overpasses (SNOs) Predictions

Prediction of SNOs between AQUA and NPP Satellite Orbit:

Table of predicted SNOs for the next 14.0 days since TLE Epoch: 4/19/2025
Index Date (AQUA) Time (AQUA) Lat,Lon (AQUA) SZA (AQUA ) Date (NPP) Time (NPP) Lat,Lon (NPP) SZA (NPP ) Distance(km) Time Diff (sec)
1 04/19/2025 14:21:32 81.29,-103.29 75.41 04/19/2025 14:21:32 81.29,-103.44 75.43 2.58 0
2 04/21/2025 23:52:54 81.28, 113.87 74.58 04/21/2025 23:52:31 81.29, 114.01 74.58 2.42 23
3 04/22/2025 00:42:12 -81.29, -78.28 105.46 04/22/2025 00:43:15 -81.29, -78.26 105.50 0.43 63
4 04/24/2025 09:24:14 81.30, -28.66 73.74 04/24/2025 09:23:30 81.29, -28.61 73.76 1.10 44
5 04/24/2025 10:13:33 -81.29, 138.81 106.25 04/24/2025 10:14:15 -81.29, 138.77 106.27 0.77 42
6 04/26/2025 18:55:34 81.28,-171.67 72.98 04/26/2025 18:54:30 81.29,-171.69 73.02 0.75 64
7 04/26/2025 19:44:52 -81.29, -3.80 107.06 04/26/2025 19:45:14 -81.29, -3.87 107.07 1.26 22
8 04/29/2025 05:16:10 -81.30,-146.49 107.84 04/29/2025 05:16:13 -81.29,-146.58 107.83 1.68 3
9 05/01/2025 14:47:27 -81.30, 70.74 108.58 05/01/2025 14:47:12 -81.29, 70.65 108.56 1.68 15



Historial Predications of SNOs between AQUA and NPP
